#timestamp,LO_Frequency,Hit 
1501959615.0,286047000.2,N
1501959615.9,286047000.2,N
1501959635.7,286047002.6,N
1501959655.6,286047002.7,N
1501959675.4,286047002.1,N
1501959695.2,286047000.2,N
1501959715.1,286047001.9,N
1501959716.0,286047001.9,N
1501959735.8,286047001.4,N
1501959755.6,286047004.4,N
1501959775.5,286047005.4,N
1501959795.3,286047005.3,N
1501959815.1,286047005.8,N
1501959835.9,286047004.1,N
1501959855.7,286047003.1,N
1501959875.5,286047007.1,N
1501959895.3,286047007.4,N
1501959915.2,286047007.1,N
1501959935.0,286047007.5,N
1501959935.9,286047007.5,N
1501959955.7,286047005.1,N
1501959975.6,286047006.5,N
1501959995.4,286047007.3,N
1501960015.2,286047006.7,N
1501960035.1,286047004.7,N
1501960036.0,286047004.7,N
1501960055.8,286047007.4,N
1501960075.6,286047006.9,N
1501960095.5,286047007.5,N
1501960115.3,286047007.0,N
1501960135.1,286047006.8,N
1501960155.9,286047006.9,N
1501960175.7,286047006.3,N
1501960195.5,286047006.5,N
1501960215.3,286047006.4,N
1501960235.2,286047007.4,N
1501960255.0,286047006.9,N
1501960255.9,286047006.9,N
1501960275.7,286047008.9,N
1501960295.6,286047008.7,N
1501960315.4,286047009.0,N
1501960335.2,286047010.8,N
1501960355.1,286047010.6,N
1501960356.0,286047010.6,N
1501960375.8,286047010.2,N
1501960395.6,286047010.5,N
1501960415.5,286047008.2,N
1501960435.3,286047009.4,N
1501960455.1,286047010.5,N
1501960475.9,286047008.1,N
1501960495.7,286047010.3,N
1501960515.5,286047007.8,N
1501960535.3,286047008.0,N
1501960555.2,286047008.6,N
1501960575.0,286047008.6,N
1501960575.9,286047008.6,N
1501960595.7,286047006.2,N
1501960615.6,286047008.0,N
1501960635.4,286047008.2,N
1501960655.2,286047007.8,N
1501960675.1,286047010.0,N
1501960676.0,286047010.0,N
1501960695.8,286047009.3,N
1501960715.6,286047011.6,N
1501960735.5,286047012.2,N
1501960755.3,286047012.3,N
1501960775.1,286047011.8,N
1501960795.8,286047009.4,N
1501960815.7,286047010.6,N
1501960835.5,286047009.7,N
1501960855.3,286047012.1,N
1501960875.2,286047011.5,N
1501960895.9,286047011.6,N
1501960915.7,286047012.3,N
1501960935.6,286047010.0,N
1501960955.4,286047011.1,N
1501960975.2,286047014.0,N
1501960995.1,286047011.1,N
1501960996.0,286047011.1,N
1501961015.8,286047011.7,N
1501961035.6,286047009.4,N
1501961055.4,286047012.0,N
1501961075.3,286047011.6,N
1501961095.1,286047011.8,N
1501961115.8,286047012.2,N
1501961135.7,286047009.7,N
1501961155.5,286047013.6,N
1501961175.3,286047012.8,N
1501961195.2,286047013.8,N
1501961215.9,286047013.6,N
1501961235.7,286047011.2,N
1501961255.6,286047011.2,N
1501961275.4,286047011.1,N
1501961295.2,286047011.2,N
1501961315.0,286047012.3,N
1501961316.0,286047012.3,N
1501961335.8,286047012.3,N
1501961355.6,286047012.1,N
1501961375.4,286047013.7,N
1501961395.3,286047011.3,N
1501961415.1,286047014.7,N
1501961435.8,286047013.4,N
1501961455.7,286047013.9,N
1501961475.5,286047015.1,N
1501961495.3,286047017.2,N
1501961515.2,286047017.0,N
1501961535.9,286047018.6,N
1501961555.7,286047016.3,N
1501961575.6,286047014.7,N
1501961595.4,286047015.6,N
1501961615.2,286047016.7,N
1501961635.0,286047016.1,N
1501961635.9,286047016.1,N
1501961655.8,286047016.7,N
1501961675.6,286047016.9,N
1501961695.4,286047018.2,N
1501961715.3,286047017.7,N
1501961735.1,286047016.8,N
1501961755.8,286047017.0,N
1501961775.7,286047018.1,N
1501961795.5,286047020.0,N
1501961815.3,286047020.0,N
1501961835.2,286047020.0,N
1501961855.9,286047020.1,N
1501961875.7,286047019.4,N
1501961895.6,286047019.4,N
1501961915.4,286047017.5,N
1501961935.2,286047017.9,N
1501961955.0,286047017.7,N
1501961955.9,286047017.7,N
1501961975.8,286047017.7,N
1501961995.6,286047019.2,N
1501962015.4,286047020.4,N
1501962035.3,286047019.4,N
1501962055.1,286047019.4,N
1501962056.0,286047019.4,N
1501962075.8,286047022.0,N
1501962095.7,286047019.7,N
1501962115.5,286047020.2,N
1501962135.3,286047019.6,N
1501962155.2,286047019.1,N
1501962175.9,286047021.8,N
1501962195.7,286047018.9,N
1501962215.6,286047021.1,N
1501962235.4,286047023.4,N
1501962255.2,286047021.2,N
1501962275.0,286047023.2,N
1501962275.9,286047023.2,N
1501962295.8,286047021.3,N
1501962315.6,286047022.0,N
1501962335.4,286047020.6,N
1501962355.4,286047021.4,N
1501962375.3,286047021.1,N
1501962395.1,286047020.7,N
1501962396.0,286047020.7,N
1501962415.8,286047020.8,N
1501962435.7,286047023.6,N
1501962455.5,286047022.9,N
1501962475.3,286047023.5,N
1501962495.1,286047022.6,N
1501962515.9,286047025.2,N
1501962535.7,286047022.2,N
1501962555.5,286047025.0,N
1501962575.4,286047022.4,N
1501962595.2,286047024.9,N
1501962615.0,286047026.3,N
1501962615.9,286047026.3,N
1501962635.8,286047023.9,N
1501962655.6,286047024.5,N
1501962675.4,286047022.6,N
1501962695.3,286047024.0,N
1501962715.1,286047024.4,N
1501962716.0,286047024.4,N
1501962735.8,286047023.7,N
1501962755.6,286047024.6,N
1501962775.5,286047025.0,N
1501962795.3,286047024.7,N
1501962815.3,286047024.1,N
1501962835.1,286047028.4,N
1501962855.8,286047027.5,N
1501962875.7,286047027.1,N
1501962895.5,286047029.4,N
1501962915.3,286047029.2,N
1501962935.2,286047029.6,N
1501962955.9,286047026.9,N
1501962975.7,286047029.7,N
1501962995.5,286047027.4,N
1501963015.4,286047027.0,N
1501963035.2,286047029.7,N
1501963055.0,286047029.5,N
1501963055.9,286047029.5,N
1501963075.8,286047029.6,N
1501963095.6,286047029.9,N
1501963115.4,286047029.7,N
1501963135.8,286047029.8,N
1501963155.6,286047026.9,N
1501963175.8,286047029.2,N
1501963195.6,286047030.7,N
